CW8822 Caguas PR US current weather conditions

sailwx.info

Wind from 170

Air temperature 21.7° C
Dewpoint 19.8° C

Last reported at 2017-Feb-24 01:52 UTC.
Time now 2017-Feb-24 02:21 UTC

Location: N 18°12' W 066°01'.
View on Google Maps.

See reports from other nearby stations

  
Tides and Currents Weather Stations Pressure Air Temp Water Temp Dewpoint Dewpoint Depression Visibility Wind Speed Wind Dir Waves Ship Positions
date/time (UTC)wind fromknots sea level pressurealtimeterstation pressurevisibilityair tempwater tempwave heightnotes
2017-Feb-24 01:52 170 21.7
2017-Feb-24 01:37 170 21.7
2017-Feb-24 01:23 170 21.7
2017-Feb-24 01:07 170 21.7
2017-Feb-24 00:52 170 21.7
2017-Feb-24 00:37 170 21.7
2017-Feb-24 00:23 170 2 gusting 5 21.7
2017-Feb-24 00:06 171 3 gusting 5 21.7
2017-Feb-23 23:52 132 1 gusting 6 22.2
2017-Feb-23 23:37 156 22.2
2017-Feb-23 23:22 157 0 gusting 6 22.2
2017-Feb-23 23:06 132 1 gusting 3 22.2
2017-Feb-23 22:52 132 22.8
2017-Feb-23 22:36 132 22.8
2017-Feb-23 22:22 132 22.8
2017-Feb-23 22:07 132 23.3
2017-Feb-23 21:51 132 23.3
2017-Feb-23 21:36 132 23.3
2017-Feb-23 21:22 135 23.3
2017-Feb-23 21:07 135 23.9
2017-Feb-23 20:51 135 23.9
2017-Feb-23 20:36 146 23.9
2017-Feb-23 20:22 148 23.9
2017-Feb-23 20:06 154 23.3
2017-Feb-23 19:51 155 22.8
2017-Feb-23 19:36 139 1 gusting 5 22.2
2017-Feb-23 19:20 144 1 gusting 6 22.2
2017-Feb-23 19:06 123 22.2
2017-Feb-23 18:51 119 22.2
2017-Feb-23 18:35 138 0 gusting 6 21.7
2017-Feb-23 18:20 143 0 gusting 6 22.2
2017-Feb-23 18:06 138 0 gusting 8 21.7
2017-Feb-23 17:50 126 22.2
2017-Feb-23 17:35 126 21.7
2017-Feb-23 17:21 124 0 gusting 6 22.2
2017-Feb-23 17:05 145 2 gusting 8 23.3
2017-Feb-23 16:50 150 23.9
2017-Feb-23 16:35 146 1 gusting 6 23.9
2017-Feb-23 16:20 083 0 gusting 4 23.9
2017-Feb-23 16:06 158 1 gusting 6 25.6
2017-Feb-23 15:50 166 26.7
2017-Feb-23 15:35 057 26.1
2017-Feb-23 15:19 057 0 gusting 6 26.1
2017-Feb-23 15:04 101 26.1
2017-Feb-23 14:50 098 26.1
2017-Feb-23 14:34 086 24.4
2017-Feb-23 14:19 059 0 gusting 5 23.9
2017-Feb-23 14:04 049 23.3
2017-Feb-23 13:50 049 0 gusting 5 22.8
2017-Feb-23 13:34 051 0 gusting 4 23.3
2017-Feb-23 13:20 348 22.2
2017-Feb-23 13:04 061 21.7
2017-Feb-23 12:49 060 21.1
2017-Feb-23 12:33 211 21.1
2017-Feb-23 12:18 211 20.0
2017-Feb-23 12:04 211 20.0
2017-Feb-23 11:48 211 19.4
2017-Feb-23 11:34 211 19.4
2017-Feb-23 11:18 211 18.9
2017-Feb-23 11:03 211 18.9
2017-Feb-23 10:48 211 18.9
2017-Feb-23 10:33 211 18.9
2017-Feb-23 10:19 211 18.3
2017-Feb-23 10:02 211 18.3
2017-Feb-23 09:48 211 18.9
2017-Feb-23 09:33 211 19.4
2017-Feb-23 09:18 211 18.9
2017-Feb-23 09:02 211 18.9
2017-Feb-23 08:48 211 19.4
2017-Feb-23 08:33 211 19.4
2017-Feb-23 08:17 211 19.4
2017-Feb-23 08:02 211 19.4
2017-Feb-23 07:47 211 19.4
2017-Feb-23 07:31 211 19.4
2017-Feb-23 07:17 211 19.4
2017-Feb-23 07:01 211 19.4
2017-Feb-23 06:47 211 19.4
2017-Feb-23 06:32 211 19.4
2017-Feb-23 06:16 211 19.4
2017-Feb-23 06:02 211 19.4
2017-Feb-23 05:47 211 19.4
2017-Feb-23 05:31 211 19.4
2017-Feb-23 05:17 211 20.0
2017-Feb-23 05:01 214 20.0
2017-Feb-23 04:46 214 21.1
2017-Feb-23 04:32 214 21.1
2017-Feb-23 04:16 214 20.6
2017-Feb-23 04:01 214 20.6
2017-Feb-23 03:45 214 2 gusting 5 20.6
2017-Feb-23 03:31 214 1 gusting 6 20.6
2017-Feb-23 03:16 215 4 gusting 6 20.6
2017-Feb-23 03:00 215 4 gusting 6 20.6
2017-Feb-23 02:45 214 3 gusting 6 20.6
2017-Feb-23 02:31 212 1 gusting 5 20.6
2017-Feb-23 02:16 221 2 gusting 6 20.6
2017-Feb-23 02:00 227 4 gusting 6 20.6
2017-Feb-23 01:45 019 2 gusting 5 20.6
2017-Feb-23 01:30 019 21.1
2017-Feb-23 01:15 019 21.1
2017-Feb-23 01:01 019 2 gusting 5 21.1
2017-Feb-23 00:45 019 21.7
2017-Feb-23 00:30 019 21.7
2017-Feb-23 00:15 019 21.7
2017-Feb-23 00:00 019 21.7
2017-Feb-22 23:44 019 21.7
2017-Feb-22 23:30 019 21.7
2017-Feb-22 23:15 019 22.2
2017-Feb-22 22:59 017 22.2
2017-Feb-22 22:44 017 22.8
2017-Feb-22 22:30 018 22.8
2017-Feb-22 22:14 009 0 gusting 6 23.3
2017-Feb-22 21:59 030 23.9
2017-Feb-22 21:45 030 24.4
2017-Feb-22 21:29 031 25.0
2017-Feb-22 21:14 321 25.6
2017-Feb-22 20:58 273 25.6
2017-Feb-22 20:44 321 0 gusting 4 25.0
2017-Feb-22 20:28 292 25.0
2017-Feb-22 20:14 015 24.4
2017-Feb-22 19:59 040 24.4
2017-Feb-22 19:43 043 24.4
2017-Feb-22 19:29 046 24.4
2017-Feb-22 19:14 054 24.4
2017-Feb-22 18:58 327 24.4
2017-Feb-22 18:43 043 25.0
2017-Feb-22 18:29 342 25.6
2017-Feb-22 18:13 339 26.1
2017-Feb-22 17:58 339 26.1
2017-Feb-22 17:44 344 26.7
2017-Feb-22 17:27 348 25.6
2017-Feb-22 17:13 330 1 gusting 5 26.7
2017-Feb-22 16:58 316 2 gusting 6 25.6
2017-Feb-22 16:43 341 25.0
2017-Feb-22 16:28 292 25.6
2017-Feb-22 16:12 281 1 gusting 7 26.1
2017-Feb-22 15:57 026 26.1
2017-Feb-22 15:43 326 26.1
2017-Feb-22 15:27 314 25.0
2017-Feb-22 15:12 252 1 gusting 6 24.4
2017-Feb-22 14:57 274 3 gusting 6 24.4
2017-Feb-22 14:42 302 1 gusting 7 23.3
2017-Feb-22 14:26 333 0 gusting 5 23.9
2017-Feb-22 14:12 284 0 gusting 6 23.3
2017-Feb-22 13:57 266 23.3
2017-Feb-22 13:41 215 23.3
2017-Feb-22 13:27 214 22.8
2017-Feb-22 13:11 214 22.2
2017-Feb-22 12:57 216 1 gusting 5 21.7
2017-Feb-22 12:41 222 2 gusting 4 21.1
2017-Feb-22 12:26 222 20.6
2017-Feb-22 12:10 222 20.0
2017-Feb-22 11:56 222 19.4
2017-Feb-22 11:40 222 18.9
2017-Feb-22 11:26 222 18.3
2017-Feb-22 11:13 222 18.3
2017-Feb-22 10:55 222 2 gusting 5 18.9
2017-Feb-22 10:41 222 2 gusting 4 18.9
2017-Feb-22 10:25 222 19.4
2017-Feb-22 10:10 222 18.9
2017-Feb-22 09:56 222 18.9
2017-Feb-22 09:40 222 19.4
2017-Feb-22 09:25 222 19.4
2017-Feb-22 09:10 222 20.0
2017-Feb-22 08:54 222 3 gusting 5 20.0
2017-Feb-22 08:40 222 20.0
2017-Feb-22 08:25 222 20.0
2017-Feb-22 08:09 222 1 gusting 4 20.0
2017-Feb-22 07:55 222 0 gusting 3 20.0
2017-Feb-22 07:40 222 20.0
2017-Feb-22 07:24 222 20.0
2017-Feb-22 07:09 222 20.0
2017-Feb-22 06:55 222 20.0
2017-Feb-22 06:39 222 1 gusting 4 19.4
2017-Feb-22 06:24 222 2 gusting 5 18.9
2017-Feb-22 06:10 221 3 gusting 7 18.9
2017-Feb-22 05:54 242 6 gusting 10 19.4
2017-Feb-22 05:40 285 2 gusting 5 20.0
2017-Feb-22 05:24 285 20.0
2017-Feb-22 05:09 286 20.0
2017-Feb-22 04:54 285 2 gusting 5 20.0
2017-Feb-22 04:38 286 1 gusting 3 20.6
2017-Feb-22 04:24 286 2 gusting 4 20.0
2017-Feb-22 04:08 286 1 gusting 5 20.0
2017-Feb-22 03:54 286 0 gusting 4 20.6
2017-Feb-22 03:38 279 1 gusting 6 20.6
2017-Feb-22 03:23 241 1 gusting 6 21.1
2017-Feb-22 03:08 244 1 gusting 5 21.1
2017-Feb-22 02:54 247 1 gusting 6 21.1
2017-Feb-22 02:38 250 2 gusting 5 21.1
2017-Feb-22 02:23 250 1 gusting 5 21.1
2017-Feb-22 02:08 250 1 gusting 6 21.1